KI5IZM-13 Weather Reports


Display with metric or nautical units.
time (UTC)temp
F
wind
direction
speed
MPH
gust
MPH
rain 1hr
in
rain 24hr
in
rain mn
in
humidity
%
barometer
mb
20260510224521 78 88 0.0 4.0 0.00 0.35 0.35 65 1016.7
20260510223016 77 352 0.0 2.0 0.01 0.35 0.35 71 1016.4
20260510221520 77 313 0.0 2.0 0.02 0.35 0.35 68 1015.9
20260510220024 76 360 0.0 2.0 0.04 0.35 0.35 76 1016.1
20260510214525 75 31 0.0 5.0 0.06 0.35 0.35 79 1016.0
20260510213014 74 203 0.0 4.0 0.08 0.34 0.34 83 1016.2
20260510211519 73 20 1.0 6.0 0.12 0.33 0.33 82 1015.9
20260510210022 72 68 0.0 6.0 0.18 0.31 0.31 85 1016.1
20260510204524 71 61 0.0 4.0 0.29 0.29 0.29 90 1016.4
20260510203036 70 59 0.0 6.0 0.26 0.26 0.26 90 1017.2
20260510201517 70 96 1.0 3.0 0.21 0.21 0.21 88 1017.6
20260510200021 71 345 1.0 7.0 0.13 0.13 0.13 83 1017.7
20260510194526 80 352 1.0 12.0 0.00 0.00 0.00 65 1017.5
20260510193025 83 20 1.0 4.0 0.00 0.00 0.00 61 1017.2
20260510191528 84 301 0.0 1.0 0.00 0.00 0.00 59 1017.3
20260510190028 84 342 0.0 2.0 0.00 0.00 0.00 59 1017.0
20260510184522 85 84 0.0 2.0 0.00 0.00 0.00 58 1016.8
20260510183035 85 315 0.0 6.0 0.00 0.00 0.00 54 1016.5
20260510181525 85 139 0.0 10.0 0.00 0.00 0.00 55 1016.3
20260510180042 85 302 0.0 5.0 0.00 0.00 0.00 55 1016.1
20260510174530 85 86 2.0 8.0 0.00 0.00 0.00 56 1016.0
20260510173023 85 85 2.0 6.0 0.00 0.00 0.00 57 1015.8
20260510171527 83 306 1.0 9.0 0.00 0.00 0.00 58 1015.7
20260510170034 82 75 1.0 11.0 0.00 0.00 0.00 59 1015.5
20260510164545 82 169 5.0 10.0 0.00 0.00 0.00 60 1015.4
20260510163025 82 45 2.0 11.0 0.00 0.00 0.00 59 1015.4
20260510161522 80 158 4.0 12.0 0.00 0.00 0.00 63 1015.3
20260510160013 79 132 3.0 10.0 0.00 0.00 0.00 63 1015.2
20260510154514 78 96 4.0 9.0 0.00 0.00 0.00 66 1015.3
20260510153028 78 94 4.0 11.0 0.00 0.00 0.00 67 1015.4
20260510151524 77 155 2.0 12.0 0.00 0.00 0.00 69 1015.6
20260510150026 76 134 1.0 12.0 0.00 0.00 0.00 71 1015.6
20260510144516 75 51 3.0 10.0 0.00 0.00 0.00 71 1015.7
20260510143019 74 169 5.0 14.0 0.00 0.00 0.00 72 1015.8
20260510141523 73 139 1.0 9.0 0.00 0.00 0.00 75 1016.1
20260510140023 73 98 3.0 8.0 0.00 0.00 0.00 76 1016.3
20260510134526 72 84 1.0 8.0 0.00 0.00 0.00 76 1016.3
20260510133017 71 123 2.0 9.0 0.00 0.00 0.00 76 1016.1
20260510131505 70 102 1.0 9.0 0.00 0.00 0.00 78 1016.1
20260510130007 68 140 1.0 7.0 0.00 0.00 0.00 82 1015.9
20260510124512 67 72 1.0 8.0 0.00 0.00 0.00 85 1016.2
20260510123014 66 142 1.0 6.0 0.00 0.00 0.00 86 1016.2
20260510121517 67 85 2.0 11.0 0.00 0.00 0.00 85 1016.4
20260510120020 67 201 1.0 7.0 0.00 0.00 0.00 84 1016.8
20260510114511 68 104 0.0 6.0 0.00 0.00 0.00 86 1017.5
20260510113014 67 209 1.0 8.0 0.00 0.00 0.00 92 1017.6
20260510111515 67 141 0.0 3.0 0.00 0.00 0.00 94 1016.7
20260510110021 67 116 0.0 4.0 0.00 0.00 0.00 95 1016.3
20260510104527 67 53 0.0 2.0 0.00 0.00 0.00 95 1016.4
20260510103008 66 40 0.0 2.0 0.00 0.00 0.00 95 1015.7
20260510101513 66 146 0.0 0.0 0.00 0.00 0.00 95 1014.9
20260510100015 66 88 0.0 0.0 0.00 0.00 0.00 95 1014.8
20260510094523 66 86 0.0 1.0 0.00 0.00 0.00 95 1014.6
20260510093023 66 133 0.0 0.0 0.00 0.00 0.00 95 1014.2
20260510091517 66 133 0.0 0.0 0.00 0.00 0.00 94 1013.7
20260510090014 66 133 0.0 3.0 0.00 0.00 0.00 94 1013.2
20260510084516 67 95 0.0 0.0 0.00 0.00 0.00 94 1013.4
20260510083021 67 95 0.0 0.0 0.00 0.00 0.00 94 1013.5
20260510081535 67 133 0.0 0.0 0.00 0.00 0.00 93 1012.8
20260510080013 67 133 0.0 0.0 0.00 0.00 0.00 92 1012.1
20260510074517 68 133 0.0 0.0 0.00 0.00 0.00 92 1011.6
20260510073004 68 87 0.0 2.0 0.00 0.00 0.00 92 1011.3
20260510071510 68 138 1.0 4.0 0.00 0.00 0.00 92 1011.3
20260510070011 69 123 0.0 0.0 0.00 0.00 0.00 91 1011.9
20260510064537 69 123 0.0 0.0 0.00 0.01 0.00 90 1012.2
20260510063020 70 123 0.0 1.0 0.00 0.01 0.00 89 1012.5
20260510061505 70 148 0.0 3.0 0.00 0.01 0.00 88 1012.1
20260510060014 71 126 0.0 3.0 0.00 0.01 0.00 87 1012.0
20260510054512 71 94 1.0 6.0 0.00 0.01 0.00 87 1011.9
20260510053016 72 277 2.0 9.0 0.00 0.01 0.00 86 1011.8
20260510051520 73 153 1.0 7.0 0.00 0.01 0.00 86 1011.8
20260510050003 73 192 2.0 12.0 0.00 0.01 0.00 86 1011.6
20260510044509 74 140 2.0 8.0 0.00 0.01 0.01 87 1011.5
20260510043014 74 134 2.0 9.0 0.00 0.01 0.01 88 1011.7
20260510041517 75 119 1.0 11.0 0.00 0.01 0.01 87 1011.8
20260510040022 75 103 3.0 12.0 0.00 0.01 0.01 87 1011.9
20260510034507 76 154 3.0 8.0 0.00 0.01 0.01 87 1011.8
20260510033011 76 102 1.0 11.0 0.00 0.01 0.01 86 1011.8
20260510031516 77 156 1.0 8.0 0.00 0.01 0.01 85 1011.5
20260510030019 77 64 2.0 7.0 0.00 0.01 0.01 83 1011.2
20260510024530 77 136 1.0 12.0 0.00 0.01 0.01 83 1011.1
20260510023010 76 105 0.0 1.0 0.00 0.01 0.01 83 1010.9
20260510021512 76 103 0.0 0.0 0.00 0.01 0.01 83 1010.9
20260510020016 77 103 0.0 0.0 0.00 0.01 0.01 81 1010.7
20260510014527 78 103 0.0 0.0 0.00 0.01 0.01 80 1010.4
20260510013024 79 103 0.0 0.0 0.00 0.01 0.01 78 1010.2
20260510011512 80 103 0.0 0.0 0.00 0.01 0.01 76 1009.8
20260510010011 81 138 0.0 0.0 0.00 0.01 0.01 74 1009.7
20260510004520 82 138 0.0 0.0 0.00 0.01 0.01 72 1009.5
20260510003027 83 139 0.0 5.0 0.00 0.01 0.01 70 1009.4
20260510001524 83 112 0.0 3.0 0.00 0.01 0.01 69 1009.3
20260510000030 85 133 0.0 4.0 0.00 0.01 0.01 65 1009.1
20260509234533 86 144 2.0 5.0 0.00 0.01 0.01 62 1009.0
20260509233034 86 124 1.0 3.0 0.00 0.01 0.01 62 1008.8
20260509231527 87 265 0.0 1.0 0.00 0.01 0.01 62 1008.8
20260509230024 87 265 0.0 1.0 0.00 0.01 0.01 59 1008.8